New Philadelphia, OH

7:00 PM EDT on June 24, 2017 (GMT -0400)
Clever

Weather History for KPHD - January, 2012

Change the Weather History Date:

Monday, January 9, 2012

  Actual Average Record
Temperature  
Mean Temperature 34 °F 29 °F  
Max Temperature 43 °F 37 °F 61 °F (1965)
Min Temperature 25 °F 21 °F -10 °F (1968)
Degree Days  
Heating Degree Days 31 36  
Month to date heating degree days 277 324  
Since 1 July heating degree days 567 2485  
Cooling Degree Days 0 0  
Month to date cooling degree days 0 0  
Year to date cooling degree days 0 0  
Moisture  
Dew Point 22 °F    
Average Humidity 60    
Maximum Humidity 81    
Minimum Humidity 39    
Precipitation  
Precipitation 0.00 in 0.08 in 1.10 in (1978)
Month to date precipitation 0.10 0.87  
Year to date precipitation 0.10 0.87  
Sea Level Pressure  
Sea Level Pressure 30.16 in    
Wind  
Wind Speed 2 mph (West)    
Max Wind Speed 8 mph    
Max Gust Speed 12 mph    
Visibility 10 miles    
Events      
T = Trace of Precipitation, MM = Missing Value Source: NWS Daily Summary

Daily Weather History Graph

Daily Weather History Graph

Search for Another Location

Airport or City:

Trip Planner

Search our weather history database for the weather conditions in past years. The results will help you decide how hot, cold, wet, or windy it might be!

Date:

Astronomy

Jan. 09, 2012 Rise Set
Actual Time 7:48 AM EST 5:16 PM EST
Civil Twilight 7:18 AM EST 5:47 PM EST
Nautical Twilight 6:44 AM EST 6:21 PM EST
Astronomical Twilight 6:11 AM EST 6:53 PM EST
Moon 6:01 PM EST (1/9) 7:48 AM EST (1/9)
Length of Visible Light 10h 28m
Length of Day
9h 27m
Full, 100% of the Moon is Illuminated
Jan 9
Full
Jan 16
Last Quarter
Jan 23
New
Jan 30
First Quarter
Feb 7
Full

Hourly Weather History & Observations

Time (EST) Temp. Windchill Dew Point Humidity Pressure Visibility Wind Dir Wind Speed Gust Speed Precip Events Conditions
12:53 AM 30.9 °F - 24.1 °F 76% 30.31 in 10.0 mi Calm Calm - N/A   Overcast
1:53 AM 30.0 °F - 24.1 °F 79% 30.31 in 10.0 mi Calm Calm - N/A   Overcast
2:53 AM 28.9 °F - 23.0 °F 78% 30.30 in 10.0 mi Calm Calm - N/A   Partly Cloudy
3:53 AM 28.9 °F - 23.0 °F 78% 30.28 in 10.0 mi Calm Calm - N/A   Partly Cloudy
4:53 AM 30.0 °F - 23.0 °F 75% 30.27 in 10.0 mi Calm Calm - N/A   Mostly Cloudy
5:53 AM 28.9 °F - 23.0 °F 78% 30.27 in 10.0 mi Calm Calm - N/A   Scattered Clouds
6:53 AM 27.0 °F - 21.0 °F 78% 30.26 in 10.0 mi Calm Calm - N/A   Clear
7:53 AM 25.0 °F - 19.9 °F 81% 30.25 in 10.0 mi Calm Calm - N/A   Clear
8:53 AM 28.0 °F - 21.9 °F 78% 30.24 in 9.0 mi Calm Calm - N/A   Clear
9:53 AM 33.1 °F - 24.1 °F 70% 30.22 in 10.0 mi Calm Calm - N/A   Clear
11:53 AM 39.9 °F 35.8 °F 23.0 °F 51% 30.16 in 10.0 mi SE 5.8 mph - N/A   Clear
12:53 PM 42.1 °F - 21.9 °F 45% 30.12 in 10.0 mi Calm Calm - N/A   Clear
1:53 PM 43.0 °F 40.3 °F 19.9 °F 40% 30.09 in 10.0 mi WNW 4.6 mph - N/A   Clear
2:53 PM 43.0 °F 39.5 °F 21.0 °F 42% 30.08 in 10.0 mi NW 5.8 mph - N/A   Clear
3:53 PM 43.0 °F 39.5 °F 19.9 °F 40% 30.06 in 10.0 mi West 5.8 mph - N/A   Clear
4:53 PM 42.1 °F 40.2 °F 19.9 °F 41% 30.05 in 10.0 mi WSW 3.5 mph - N/A   Clear
5:53 PM 39.9 °F - 21.9 °F 49% 30.07 in 10.0 mi Calm Calm - N/A   Partly Cloudy
6:53 PM 36.0 °F - 21.0 °F 55% 30.05 in 10.0 mi Calm Calm - N/A   Scattered Clouds
7:53 PM 34.0 °F - 21.0 °F 59% 30.06 in 10.0 mi Calm Calm - N/A   Partly Cloudy
8:53 PM 37.0 °F 34.5 °F 21.9 °F 54% 30.05 in 10.0 mi WSW 3.5 mph - N/A   Clear
9:53 PM 33.1 °F - 21.0 °F 61% 30.04 in 10.0 mi Calm Calm - N/A   Clear
10:53 PM 30.9 °F - 21.0 °F 67% 30.05 in 10.0 mi Calm Calm - N/A   Clear
11:53 PM 35.1 °F 32.2 °F 21.0 °F 57% 30.03 in 10.0 mi West 3.5 mph - N/A   Clear